Flag for Poland Weather past 2 weeks in Wroclaw, Poland

Now
37 °F

Passing clouds.


Feels Like: 27 °F
Forecast: 36 / 45 °F
Wind: 18 mph from Northwest

Location: Wroclaw Ii

Current Time: Mar 3, 2015 at 6:37:37 AM

Latest Report: Mar 3, 2015 at 6:00 AM


Visibility: N/A

Pressure: 29.89 "Hg

Humidity: 75%

Dew point: 30 °F

Location of WroclawLocation

Historic Weather in Wroclaw — Graph

°F

Wroclaw temperature yesterday

Maximum temperature yesterday: 52 °F (at 12:30 PM)
Minimum temperature yesterday: 37 °F (at 10:30 PM)
Average temperature yesterday: 44 °F

Past Weeks' High & Low Weather Summary

 TemperatureHumidityPressure
High52 °F (Mar 2, 12:30 PM)93% (Feb 18, 7:00 PM)30.72 "Hg (Feb 18, 7:00 PM)
Low23 °F (Feb 19, 5:30 AM)35% (Mar 2, 2:00 PM)29.47 "Hg (Mar 2, 9:00 AM)
Average39 °F74%30.00 "Hg
* Reported Feb 16 5:00 AM — Mar 3 5:30 AM, Wroclaw, Weather by CustomWeather, © 2015

Note: Actual official high and low records may vary slightly from our data, if they occured in-between our weather recording intervals... More about our weather records

Advertising

Wroclaw weather history for previous 24 hours

 ConditionsComfort  
Time TempWeatherWind HumidityBarometerVisibility
5:30 AM
Tue, Mar 3
37 °FPassing clouds.15 mph75%29.89 "HgN/A
5:00 AM37 °FPassing clouds.12 mph81%29.89 "HgN/A
4:30 AM36 °FSprinkles. Partly cloudy.14 mph87%29.86 "HgN/A
4:00 AM36 °FSnow flurries. Partly cloudy.16 mph87%29.86 "HgN/A
3:30 AM36 °FSnow showers. Passing clouds.18 mph87%29.83 "Hg4 mi
3:00 AM37 °FSprinkles. Passing clouds.17 mph81%29.83 "HgN/A
2:30 AM39 °FPassing clouds.9 mph65%29.80 "HgN/A
2:00 AM37 °FClear.6 mph65%29.77 "Hg10 mi
1:30 AM37 °FClear.7 mph60%29.77 "Hg10 mi
1:00 AM37 °FClear.7 mph60%29.77 "Hg10 mi
12:30 AM37 °FClear.7 mph60%29.74 "Hg10 mi
12:00 AM37 °FClear.6 mph60%29.74 "Hg10 mi
11:30 PM
Mon, Mar 2
37 °FClear.5 mph60%29.74 "Hg10 mi
11:00 PM37 °FPassing clouds.7 mph60%29.74 "HgN/A
10:30 PM37 °FClear.9 mph65%29.74 "Hg10 mi
10:00 PM39 °FClear.8 mph61%29.74 "Hg10 mi
9:30 PM39 °FClear.7 mph61%29.74 "Hg10 mi
9:00 PM39 °FPassing clouds.7 mph61%29.71 "HgN/A
8:30 PM39 °FPassing clouds.8 mph65%29.71 "HgN/A
8:00 PM39 °FClear.8 mph65%29.71 "Hg10 mi
7:30 PM41 °FClear.9 mph66%29.71 "Hg10 mi
7:00 PM41 °FClear.12 mph61%29.68 "Hg10 mi
6:30 PM43 °FClear.13 mph57%29.68 "Hg10 mi
6:00 PM43 °FPassing clouds.15 mph57%29.65 "HgN/A
5:30 PM41 °FPassing clouds.17 mph66%29.65 "HgN/A
5:00 PM41 °FPassing clouds.28 mph70%29.65 "HgN/A
4:30 PM45 °FScattered clouds.20 mph57%29.62 "HgN/A
4:00 PM50 °FPassing clouds.21 mph37%29.59 "HgN/A
3:30 PM48 °FPassing clouds.18 mph43%29.56 "HgN/A
3:00 PM50 °FPassing clouds.18 mph43%29.56 "HgN/A
2:30 PM50 °FSprinkles. Passing clouds.21 mph47%29.56 "HgN/A
2:00 PM52 °FSunny.22 mph35%29.53 "Hg10 mi
1:30 PM50 °FPassing clouds.22 mph43%29.53 "HgN/A
1:00 PM50 °FPassing clouds.20 mph50%29.53 "HgN/A
12:30 PM52 °FScattered clouds.18 mph47%29.53 "HgN/A
12:00 PM48 °FScattered clouds.21 mph62%29.50 "HgN/A
11:30 AM48 °FScattered clouds.21 mph66%29.50 "HgN/A
11:00 AM45 °FSprinkles. Partly sunny.25 mph76%29.50 "HgN/A
10:30 AM50 °FScattered clouds.13 mph67%29.47 "HgN/A
10:00 AM48 °FPassing clouds.6 mph71%29.47 "HgN/A
9:30 AM48 °FPassing clouds.6 mph71%29.47 "HgN/A
9:00 AM48 °FPassing clouds.9 mph71%29.47 "HgN/A
8:30 AM46 °FScattered clouds.8 mph76%29.50 "HgN/A
8:00 AM45 °FLight rain. Scattered clouds.8 mph76%29.50 "HgN/A
7:30 AM45 °FPassing clouds.7 mph76%29.50 "HgN/A
7:00 AM45 °FPassing clouds.9 mph76%29.50 "HgN/A
6:30 AM45 °FPassing clouds.8 mph76%29.50 "HgN/A
6:00 AM45 °FPassing clouds.7 mph76%29.53 "HgN/A
Weather by CustomWeather, © 2015

See weather overviewHow to use our weather pages